[[[{"header":{"parameterUnit":"kt","parameterCategory":2,"dx":1,"dy":1,"la1":30.253999710083008,"la2":30.299108505249023,"lo1":-89.0895004272461,"lo2":-89.04439544677734,"nx":28,"ny":28,"refTime":"2022-10-24T21:00:00:Z","depth":0,"parameterNumber":1,"parameterNumberName":"U-component_of_WINDS"},"data":[4.1845,4.1895,4.1895,4.1954,4.1964,4.2005,4.2019,4.2038,4.2053,4.2103,4.2131,4.2137,4.2152,4.2187,4.2219,4.222,4.2235,4.2254,4.2253,4.2165,4.2153,4.2141,4.2129,4.2257,4.2257,4.2345,4.2346,4.2347,4.1786,4.1796,4.1826,4.1855,4.1882,4.1864,4.1885,4.1909,4.1946,4.1964,4.1991,4.2034,4.2068,4.2077,4.211,4.2136,4.2129,4.2145,4.2144,4.2147,4.2052,4.2039,4.215,4.215,4.215,4.215,4.215,4.215,4.168,4.1709,4.1726,4.1758,4.1772,4.1792,4.1821,4.1825,4.1855,4.1888,4.1881,4.1922,4.194,4.1978,4.1991,4.2024,4.2006,4.2023,4.2028,4.2033,4.204,4.1917,4.2029,4.2029,4.2029,4.2028,4.2028,0,4.1602,4.1599,4.1626,4.1655,4.1678,4.1699,4.1718,4.1736,4.1729,4.1753,4.1789,4.181,4.185,4.1885,4.1914,4.1923,4.1906,4.1903,4.1916,4.1921,4.1923,4.1925,4.1773,4.19,4.1899,4.1898,4.1898,4.1897,4.1496,4.1529,4.1545,4.1565,4.1574,4.1605,4.1624,4.1614,4.1635,4.1657,4.1684,4.1717,4.1743,4.18,4.1805,4.1835,4.1827,4.1876,4.1831,4.1836,4.1831,4.183,4.1834,4.1885,4.1887,4.1888,4.1889,0,4.1438,4.1434,4.1485,4.1496,4.1499,4.1535,4.1545,4.1574,4.1574,4.1614,4.1623,4.1623,4.1658,4.1653,4.1691,4.1688,4.1752,4.1743,4.1747,4.1746,4.1791,4.1788,4.1934,4.1953,4.1819,4.182,4.1821,0,4.1347,4.139,4.1383,4.1412,4.1461,4.1449,4.1498,4.1502,4.1515,4.1546,4.1525,4.1555,4.1544,4.1574,4.1569,4.162,4.1626,4.1627,4.1626,4.163,4.163,4.1641,4.1636,4.1617,4.1616,4.1616,4.1615,0,4.1257,4.1301,4.1349,4.1358,4.1373,4.1396,4.1403,4.1416,4.1433,4.1455,4.1467,4.1493,4.1508,4.153,4.1523,4.1493,4.1584,4.1541,4.1585,4.1586,4.1606,4.1605,4.1735,4.1614,4.1614,4.1614,4.1613,0,4.1182,4.1203,4.1271,4.1283,4.1295,4.1326,4.135,4.1375,4.139,4.1389,4.1406,4.139,4.1431,4.139,4.1448,4.1411,4.1428,4.1432,4.1435,4.1439,4.1393,4.1469,4.1592,4.1605,4.1443,4.1442,4.1441,0,4.1082,4.1148,4.1137,4.1201,4.1231,4.1205,4.1239,4.1252,4.1252,4.1278,4.1278,4.1308,4.1275,4.1284,4.1313,4.1314,4.1362,4.1308,4.1349,4.1351,4.1348,4.146,4.148,4.1565,4.1422,4.1424,4.1426,0,4.1002,4.1016,4.1028,4.1039,4.1052,4.1075,4.1114,4.1139,4.1158,4.1173,4.1206,4.1245,4.1224,4.1237,4.1226,4.1257,4.133,4.1228,4.1228,4.1249,4.1411,4.1431,4.1445,4.1316,4.1318,4.132,4.1411,0,4.0896,4.0926,4.0957,4.0978,4.0995,4.1033,4.1025,4.1044,4.1032,4.103,4.1077,4.1083,4.1109,4.1122,4.1109,4.1179,4.1167,4.1142,4.1101,4.1174,4.1205,4.1216,4.1058,4.1057,4.1056,4.1055,0,0,4.0802,4.0844,4.0828,4.0863,4.0877,4.0846,4.0889,4.0898,4.0917,4.0927,4.0904,4.0961,4.0966,4.1024,4.1046,4.1055,4.1068,4.1041,4.1139,4.1149,4.1157,4.119,4.1202,4.1053,4.1053,4.1052,4.1052,0,4.0761,4.0765,4.0805,4.0814,4.0826,4.0821,4.0831,4.0837,4.0837,4.0881,4.0855,4.0882,4.0925,4.0936,4.0947,4.1035,4.1014,4.1042,4.1094,4.1129,4.114,4.1149,4.1183,4.1195,4.1049,4.1049,4.1049,0,4.0683,4.0686,4.0704,4.0729,4.0736,4.0766,4.0722,4.0753,4.0776,4.0739,4.0783,4.0785,4.0797,4.0851,4.0875,4.0855,4.0966,4.0927,4.0934,4.0936,4.097,4.0983,4.0994,4.0842,4.0841,4.084,0,0,4.0648,4.0675,4.0674,4.072,4.0726,4.0718,4.0731,4.072,4.073,4.0735,4.0736,4.0748,4.0773,4.079,4.0812,4.0872,4.0875,4.0902,4.0912,4.092,4.0927,4.0962,4.0975,4.0838,4.0838,4.0838,0,0,4.0632,4.0632,4.0617,4.0668,4.068,4.0682,4.071,4.0692,4.0711,4.0705,4.0687,4.0689,4.0739,4.0741,4.0708,4.0798,4.0758,4.0765,4.0794,4.0807,4.0816,4.0815,4.0662,0,0,0,0,0,4.0584,4.0632,4.0619,4.0626,4.0656,4.0689,4.0693,4.0679,4.0651,4.0675,4.0674,4.0649,4.072,4.069,4.0698,4.0735,4.0805,4.0811,4.0816,4.0868,4.088,4.0891,0,0,0,0,0,0,4.0586,4.0595,4.0617,4.0621,4.0628,4.0687,4.0638,4.0636,4.0649,4.0643,4.065,4.0649,4.0638,4.0685,4.0692,4.0728,4.066,4.0807,4.0812,4.0816,4.0872,4.0883,4.0892,0,0,0,0,0,4.0588,4.0595,4.0647,4.0621,4.0627,4.0619,4.0636,4.0634,4.0643,4.064,4.0638,4.0631,4.0639,4.0644,4.0689,4.0725,4.0655,4.0658,4.081,4.0814,4.0818,4.0877,0,0,0,0,0,0,4.059,4.0593,4.0648,4.065,4.06,4.0615,4.0617,4.0632,4.0639,4.0637,4.0619,4.0615,4.0641,4.0644,4.0648,4.0725,4.0651,4.0654,4.0655,4.0813,4.0816,4.0819,0,0,0,0,0,0,4.0589,4.0595,4.0649,4.0624,4.0622,4.0612,4.0614,4.0649,4.0639,4.0618,4.0614,4.0617,4.0635,4.0645,4.0647,4.0703,4.0648,4.065,4.0652,4.0653,4.0816,4.0818,0,0,0,0,0,0,4.0591,4.0596,4.0624,4.0622,4.0621,4.0634,4.0643,4.0675,4.0617,4.0618,4.0612,4.0609,4.0636,4.0638,4.0647,4.0702,4.0703,4.0648,4.0649,4.0651,4.0652,0,0,0,0,0,0,0,4.0593,4.0567,4.0641,4.0621,4.0619,4.0662,4.0662,4.0662,4.0617,4.0615,4.0612,4.061,4.0633,4.0635,4.0638,4.0701,0,0,4.0647,4.0649,0,0,0,0,0,0,0,0,4.0565,4.0566,4.0641,4.0641,4.0641,4.0662,4.0662,4.0662,4.0617,4.0615,4.0613,4.0611,4.0633,4.0636,4.0638,0,0,0,0,0,0,0,0,0,0,0,0,0,0,0,4.0641,4.0641,0,4.0662,4.0662,4.0662,4.0616,4.0615,4.0613,4.0612,4.0634,4.0636,4.0638,0,0,0,0,0,0,0,0,0,0,0,0,0,0,0,0,0,0,0,0,0,0,0,0,0,0,0,0,0,0,0,0,0,0,0,0,0,0,0,0,0,0,0,0,0,0,0,0,0,0,0,0,0,0,0,0,0,0,0,0,0,0,0,0,0,0,0,0,0]}],[{"header":{"parameterUnit":"kt","parameterCategory":2,"dx":1,"dy":1,"la1":30.253999710083008,"la2":30.299108505249023,"lo1":-89.0895004272461,"lo2":-89.04439544677734,"nx":28,"ny":28,"refTime":"2022-10-24T21:00:00:Z","depth":0,"parameterNumber":2,"parameterNumberName":"V-component_of_WINDS"},"data":[-4.9329,-4.9361,-4.9404,-4.9461,-4.9509,-4.9556,-4.9586,-4.9629,-4.9675,-4.9735,-4.9777,-4.9823,-4.9884,-4.9945,-4.9992,-5.0011,-5.0029,-5.0011,-5.0036,-5.0079,-5.0087,-5.0096,-5.0091,-5.0014,-5.0014,-4.9987,-4.9987,-4.9986,-4.9363,-4.9411,-4.9453,-4.9522,-4.9559,-4.9603,-4.9662,-4.9689,-4.9729,-4.9784,-4.9827,-4.9883,-4.9932,-5.0,-5.0054,-5.0071,-5.0094,-5.0083,-5.0082,-5.0091,-5.0138,-5.0133,-5.0064,-5.0064,-5.0064,-5.0064,-5.0064,-5.0064,-4.9436,-4.9453,-4.952,-4.9565,-4.9612,-4.9658,-4.9681,-4.9737,-4.9778,-4.9839,-4.988,-4.9925,-4.9988,-5.0072,-5.011,-5.0147,-5.0166,-5.0166,-5.0167,-5.0166,-5.016,-5.0198,-5.0157,-5.0158,-5.0158,-5.0158,-5.0158,0,-4.9503,-4.9537,-4.9579,-4.9634,-4.967,-4.9716,-4.9765,-4.9781,-4.9866,-4.9895,-4.9942,-4.9976,-5.0042,-5.009,-5.0149,-5.0189,-5.0235,-5.0244,-5.0244,-5.0225,-5.0203,-5.0217,-5.0293,-5.0244,-5.0245,-5.0245,-5.0246,-5.0246,-4.9581,-4.9594,-4.9683,-4.9707,-4.9744,-4.978,-4.9811,-4.9885,-4.9914,-4.9984,-4.9995,-5.0044,-5.0087,-5.0153,-5.0215,-5.0264,-5.0286,-5.0264,-5.0294,-5.0277,-5.0288,-5.0287,-5.029,-5.0256,-5.0255,-5.0254,-5.0253,0,-4.9621,-4.9689,-4.9723,-4.9809,-4.9831,-4.9841,-4.9914,-4.9933,-4.9984,-5.0017,-5.0029,-5.0107,-5.015,-5.0216,-5.0277,-5.0311,-5.0331,-5.0351,-5.0312,-5.032,-5.0307,-5.0308,-5.0251,-5.0249,-5.0329,-5.0328,-5.0327,0,-4.9714,-4.9728,-4.9829,-4.9844,-4.9864,-4.9937,-4.9953,-4.9998,-5.0052,-5.0078,-5.0142,-5.0165,-5.0246,-5.0279,-5.0327,-5.0355,-5.0366,-5.0393,-5.0406,-5.0388,-5.0384,-5.0403,-5.0407,-5.0432,-5.0432,-5.0432,-5.0433,0,-4.977,-4.9839,-4.9865,-4.9891,-4.9982,-4.9993,-5.0031,-5.0091,-5.0118,-5.0165,-5.0185,-5.0233,-5.0259,-5.0296,-5.0358,-5.0376,-5.0392,-5.043,-5.042,-5.0419,-5.0419,-5.0418,-5.0353,-5.0433,-5.0433,-5.0433,-5.0433,0,-4.9855,-4.9901,-4.9928,-5.0006,-5.0021,-5.0037,-5.0091,-5.0119,-5.0177,-5.0209,-5.0246,-5.0295,-5.0323,-5.0357,-5.0397,-5.0404,-5.0426,-5.0455,-5.0455,-5.0461,-5.0496,-5.0451,-5.0382,-5.0378,-5.0468,-5.0469,-5.0469,0,-4.9902,-4.9946,-5.0009,-5.0031,-5.0061,-5.0132,-5.0151,-5.02,-5.0244,-5.0275,-5.0324,-5.0358,-5.0396,-5.0415,-5.0427,-5.0477,-5.0469,-5.0481,-5.0525,-5.0526,-5.0509,-5.0446,-5.0419,-5.039,-5.0473,-5.0473,-5.0473,0,-4.9946,-5.0055,-5.0054,-5.0088,-5.0163,-5.0187,-5.0208,-5.0259,-5.0276,-5.0322,-5.0343,-5.039,-5.0423,-5.0452,-5.0496,-5.0504,-5.0477,-5.0536,-5.0539,-5.0525,-5.048,-5.0456,-5.045,-5.0505,-5.0504,-5.0504,-5.0476,0,-5.0062,-5.0091,-5.0092,-5.016,-5.0189,-5.0205,-5.0274,-5.0295,-5.0336,-5.0381,-5.0411,-5.0465,-5.0513,-5.0523,-5.056,-5.0558,-5.0568,-5.06,-5.0636,-5.0594,-5.0586,-5.0583,-5.0642,-5.0644,-5.0645,-5.0646,0,0,-5.009,-5.0133,-5.0199,-5.0222,-5.025,-5.0321,-5.0333,-5.0368,-5.0436,-5.0454,-5.0475,-5.0549,-5.059,-5.0618,-5.061,-5.0629,-5.0635,-5.0645,-5.0613,-5.0609,-5.0606,-5.0596,-5.0592,-5.0648,-5.0648,-5.0649,-5.0649,0,-5.0147,-5.0189,-5.02,-5.024,-5.0301,-5.0348,-5.0351,-5.0423,-5.0452,-5.048,-5.0536,-5.0561,-5.0615,-5.0654,-5.068,-5.0645,-5.0685,-5.0654,-5.0613,-5.0623,-5.0617,-5.0613,-5.0602,-5.0597,-5.0652,-5.0652,-5.0652,0,-5.0203,-5.0257,-5.0269,-5.0335,-5.0374,-5.0401,-5.0457,-5.0481,-5.0502,-5.0574,-5.06,-5.0639,-5.0693,-5.071,-5.0719,-5.0738,-5.0727,-5.074,-5.0735,-5.0737,-5.0749,-5.0742,-5.0736,-5.0816,-5.0816,-5.0817,0,0,-5.0242,-5.0269,-5.0348,-5.0352,-5.0373,-5.0442,-5.0462,-5.0504,-5.0553,-5.0571,-5.0621,-5.0665,-5.0699,-5.0718,-5.0752,-5.076,-5.0777,-5.0758,-5.075,-5.0744,-5.0742,-5.0753,-5.0746,-5.0818,-5.0818,-5.0818,0,0,-5.026,-5.0353,-5.0385,-5.0398,-5.0443,-5.052,-5.0519,-5.056,-5.0597,-5.0603,-5.0672,-5.0687,-5.0703,-5.0737,-5.0745,-5.0766,-5.08,-5.08,-5.0743,-5.0734,-5.0726,-5.0718,-5.0807,0,0,0,0,0,-5.0353,-5.0342,-5.037,-5.0382,-5.0463,-5.0504,-5.0515,-5.0573,-5.0598,-5.0597,-5.0645,-5.0686,-5.0757,-5.0766,-5.0776,-5.0766,-5.0833,-5.083,-5.0828,-5.0757,-5.0747,-5.0738,0,0,0,0,0,0,-5.0358,-5.0373,-5.0371,-5.0445,-5.0464,-5.0505,-5.056,-5.0575,-5.06,-5.0607,-5.0675,-5.0688,-5.0737,-5.0764,-5.0773,-5.0762,-5.0805,-5.0832,-5.0829,-5.0827,-5.0753,-5.0745,-5.0738,0,0,0,0,0,-5.0363,-5.0375,-5.0489,-5.0446,-5.0462,-5.0538,-5.0561,-5.0574,-5.0594,-5.0667,-5.068,-5.0635,-5.0735,-5.0746,-5.0769,-5.0756,-5.0799,-5.0802,-5.083,-5.0828,-5.0827,-5.0749,0,0,0,0,0,0,-5.0366,-5.0387,-5.0494,-5.0501,-5.0454,-5.0537,-5.0552,-5.0573,-5.0653,-5.0666,-5.063,-5.0635,-5.0734,-5.0743,-5.0751,-5.0751,-5.0795,-5.0798,-5.08,-5.0829,-5.0827,-5.0826,0,0,0,0,0,0,-5.0381,-5.0393,-5.0497,-5.0504,-5.0513,-5.0535,-5.0549,-5.0575,-5.0652,-5.0612,-5.0619,-5.0631,-5.0721,-5.074,-5.0747,-5.0786,-5.0791,-5.0794,-5.0796,-5.0798,-5.0828,-5.0827,0,0,0,0,0,0,-5.0387,-5.0397,-5.0503,-5.0509,-5.0517,-5.0601,-5.056,-5.0639,-5.066,-5.0607,-5.0663,-5.0665,-5.0717,-5.0725,-5.0743,-5.0779,-5.0784,-5.0791,-5.0793,-5.0795,-5.0796,0,0,0,0,0,0,0,-5.0392,-5.0311,-5.0451,-5.0513,-5.052,-5.0567,-5.0569,-5.0571,-5.066,-5.0662,-5.0663,-5.0664,-5.0775,-5.0778,-5.0781,-5.0774,0,0,-5.0791,-5.0793,0,0,0,0,0,0,0,0,-5.0309,-5.0311,-5.0452,-5.0453,-5.0455,-5.0567,-5.0569,-5.057,-5.0661,-5.0662,-5.0663,-5.0664,-5.0776,-5.0778,-5.0781,0,0,0,0,0,0,0,0,0,0,0,0,0,0,0,-5.0452,-5.0453,0,-5.0567,-5.0569,-5.057,-5.0661,-5.0662,-5.0663,-5.0663,-5.0776,-5.0779,-5.0781,0,0,0,0,0,0,0,0,0,0,0,0,0,0,0,0,0,0,0,0,0,0,0,0,0,0,0,0,0,0,0,0,0,0,0,0,0,0,0,0,0,0,0,0,0,0,0,0,0,0,0,0,0,0,0,0,0,0,0,0,0,0,0,0,0,0,0,0,0]}]]]